(290290) = 2005 SO167

Discovered at Palomar on 2005-09-28 by NEAT.

Orbit

Orbit type: Main Belt

Note: WebGL enabled browser required.

epoch2023-09-13.0
epoch JD2460200.5
perihelion date2019-10-28.12069
perihelion JD2458784.62069
argument of perihelion (°)247.68357
ascending node (°)163.90372
inclination (°)17.77296
eccentricity0.3163303
perihelion distance (AU)1.8928637
Tisserand w.r.t. Jupiter3.2
ΔV w.r.t. Earth (km/sec)10.2
semimajor axis (AU)2.7686816
mean anomaly (°)302.91485
mean daily motion (°/day)0.21394120
aphelion distance (AU)3.644
period (years)4.61
P-vector [x]0.60908041
P-vector [y]0.79230347
P-vector [z]0.03572494
Q-vector [x]-0.78858024
Q-vector [y]0.60018166
Q-vector [z]0.13387746
absolute magnitude16.47
phase slope0.15
uncertainty0
referenceMPEC 2023-X102
observations used429
oppositions13
arc length (days)8493
first opposition used2000
last opposition used2023
residual rms (arc-secs)0.78
perturbers coarse indicatorM-v
perturbers precise indicator003Ek
first observation date used2000-09-03.0
last observation date used2023-12-05.0
computer nameMPCLINUX
JD of orbit computation2456966.823776
perihelion JD uncertainty (days)4.9812E-05
argument of perihelion uncertainty (°)1.7275E-05
ascending node uncertainty (°)1.2676E-05
inclination uncertainty (°)7.2293E-06
eccentricity uncertainty 5.1847E-08
perihelion distance uncertainty (AU)1.4661E-07
Minimum Orbit Intersection Distances (in AU)
for orbit epoch: 2460200.5, reference: E2023-XA2
Mercury1.5893
Venus1.20514
Earth0.97447
Mars0.60579
Jupiter2.0949
Saturn6.33369
Uranus15.1932
Neptune27.1666

Observations

435 total observations over interval: 2000 09 03.199392 – 2023 12 05.234380
These data are available for download (format description).

Date (UT) J2000 RA J2000 Dec Magn Location Ref
2000 09 03.199392 20 51 37.935 -07 12 42.17 20.08 V 645 – Apache Point-Sloan Digital Sky Survey MPS 182486
2000 09 03.202864 20 51 37.799 -07 12 44.63 20.87   645 – Apache Point-Sloan Digital Sky Survey MPS 182486
2002 02 07.44608 10 04 08.31 +02 31 33.2 20.6   644 – Palomar Mountain/NEAT MPS 179374
2002 02 07.45875 10 04 07.66 +02 31 41.6 19.8   644 – Palomar Mountain/NEAT MPS 179374
2002 02 07.47273 10 04 06.95 +02 31 50.8 20.3   644 – Palomar Mountain/NEAT MPS 179374
2002 02 16.44356 09 56 36.77 +04 14 56.0 20.2   644 – Palomar Mountain/NEAT MPS 179374
2002 02 16.45513 09 56 36.16 +04 15 04.0 19.7   644 – Palomar Mountain/NEAT MPS 179374
2002 02 16.46913 09 56 35.45 +04 15 13.5 19.7   644 – Palomar Mountain/NEAT MPS 179374
2005 09 28.34816 02 09 14.87 -06 48 06.3 18.6 R 644 – Palomar Mountain/NEAT MPS 144343
2005 09 28.37136 02 09 14.61 -06 48 31.7 18.8 R 644 – Palomar Mountain/NEAT MPS 144343
2005 09 28.39346 02 09 14.39 -06 48 56.3 19.1 R 644 – Palomar Mountain/NEAT MPS 144343
2005 10 01.33164 02 08 44.99 -07 42 34.3 18.3 R 699 – Lowell Observatory-LONEOS MPS 144343
2005 10 01.35461 02 08 44.58 -07 42 59.9   699 – Lowell Observatory-LONEOS MPS 144343
2005 10 01.37761 02 08 44.27 -07 43 24.7   699 – Lowell Observatory-LONEOS MPS 144343
2005 10 01.40058 02 08 43.88 -07 43 49.5   699 – Lowell Observatory-LONEOS MPS 144343
2005 10 08.34623 02 06 41.61 -09 49 28.8 18.7 V 703 – Catalina Sky Survey MPS 155326
2005 10 08.35264 02 06 41.40 -09 49 35.5 18.7 V 703 – Catalina Sky Survey MPS 155326
2005 10 08.35905 02 06 41.25 -09 49 42.9 18.7 V 703 – Catalina Sky Survey MPS 155326
2005 10 08.36546 02 06 41.07 -09 49 49.3 18.4 V 703 – Catalina Sky Survey MPS 155326
2005 10 25.26158 01 58 22.83 -14 13 49.1 18.9   704 – Lincoln Laboratory ETS, New Mexico MPS 152155
2005 10 25.27333 01 58 22.41 -14 13 58.7 19.0   704 – Lincoln Laboratory ETS, New Mexico MPS 152155
2005 10 25.28511 01 58 21.96 -14 14 06.5 19.1   704 – Lincoln Laboratory ETS, New Mexico MPS 152155
2005 10 25.29696 01 58 21.55 -14 14 15.9 18.8   704 – Lincoln Laboratory ETS, New Mexico MPS 152155
2005 10 25.30869 01 58 21.14 -14 14 25.1 19.4   704 – Lincoln Laboratory ETS, New Mexico MPS 152155
2005 10 31.25526 01 55 06.88 -15 21 52.2 18.6 V 703 – Catalina Sky Survey MPS 152155
2005 10 31.26060 01 55 06.63 -15 21 55.8 18.4 V 703 – Catalina Sky Survey MPS 152155
2005 10 31.26603 01 55 06.52 -15 21 57.2 18.4 V 703 – Catalina Sky Survey MPS 152155
2005 10 31.27141 01 55 06.34 -15 22 00.6 18.5 V 703 – Catalina Sky Survey MPS 152155
2005 12 07.17650 01 49 41.59 -15 59 05.1 19.8 V 703 – Catalina Sky Survey MPS 153726
2005 12 07.18456 01 49 41.59 -15 58 59.7 19.5 V 703 – Catalina Sky Survey MPS 153726
2005 12 07.19260 01 49 41.88 -15 58 58.5 20.7 V 703 – Catalina Sky Survey MPS 153726
2005 12 07.20064 01 49 42.09 -15 58 53.8 19.3 V 703 – Catalina Sky Survey MPS 153726
2007 03 11.26680 12 23 31.33 +05 00 09.0 21.1 V 691 – Steward Observatory, Kitt Peak-Spacewatch MPS 203085
2007 03 11.28439 12 23 30.52 +05 00 19.6 20.8 V 691 – Steward Observatory, Kitt Peak-Spacewatch MPS 203085
2007 03 11.30199 12 23 29.74 +05 00 29.7 21.1 V 691 – Steward Observatory, Kitt Peak-Spacewatch MPS 203085
2007 04 15.19516 11 58 11.50 +09 53 25.8 21.6 V 691 – Steward Observatory, Kitt Peak-Spacewatch MPS 206930
2007 04 15.20855 11 58 11.01 +09 53 30.9 21.4 V 691 – Steward Observatory, Kitt Peak-Spacewatch MPS 206930
2007 04 15.22193 11 58 10.53 +09 53 35.5 21.7 V 691 – Steward Observatory, Kitt Peak-Spacewatch MPS 206930
2010 10 20.86070 07 45 25.33 +00 54 33.6   C51 – WISE MPS 351209
2010 10 21.12518 07 45 45.75 +00 52 13.5   C51 – WISE MPS 351209
2010 10 21.25749 07 45 56.02 +00 51 02.1   C51 – WISE MPS 351209
2010 10 21.52197 07 46 16.33 +00 48 41.0   C51 – WISE MPS 351209
2010 10 21.52209 07 46 16.39 +00 48 41.2   C51 – WISE MPS 351209
2010 10 21.58818 07 46 21.52 +00 48 06.7   C51 – WISE MPS 351209
2010 10 21.65427 07 46 26.57 +00 47 30.5   C51 – WISE MPS 351209
2010 10 21.72049 07 46 31.65 +00 46 55.4   C51 – WISE MPS 351209
2010 10 21.85266 07 46 41.71 +00 45 44.1   C51 – WISE MPS 351209
2010 10 22.24945 07 47 11.85 +00 42 14.9   C51 – WISE MPS 351209
2010 10 22.24957 07 47 12.01 +00 42 12.2   C51 – WISE MPS 351209
2011 01 13.32828 07 55 45.28 -02 46 07.5 18.1 J W91 – VHS-VISTA, Cerro Paranal MPS 678483
2011 01 13.33140 07 55 45.09 -02 46 05.6 17.9 J W91 – VHS-VISTA, Cerro Paranal MPS 678483
2011 01 13.33645 07 55 44.81 -02 46 02.7 17.5 K W91 – VHS-VISTA, Cerro Paranal MPS 678483
2013 06 08.37698 17 05 23.82 +02 00 51.6 21.5 V G96 – Mt. Lemmon Survey MPS 469804
2013 06 08.38366 17 05 23.49 +02 00 52.2 21.5 V G96 – Mt. Lemmon Survey MPS 469804
2013 06 08.39045 17 05 23.13 +02 00 52.1 21.5 V G96 – Mt. Lemmon Survey MPS 469804
2013 06 08.39725 17 05 22.81 +02 00 52.9 21.3 V G96 – Mt. Lemmon Survey MPS 469804
2013 06 19.46194 16 56 24.910 +02 03 11.58 21.3 r F51 – Pan-STARRS 1, Haleakala MPS 471144
2013 06 19.47192 16 56 24.445 +02 03 10.81 21.1 r F51 – Pan-STARRS 1, Haleakala MPS 471144
2013 06 19.48341 16 56 23.896 +02 03 10.35 21.1 i F51 – Pan-STARRS 1, Haleakala MPS 471144
2013 06 19.49401 16 56 23.394 +02 03 10.26 21.2 i F51 – Pan-STARRS 1, Haleakala MPS 471144
2013 07 03.33186 16 46 25.967 +01 38 36.20 21.5 w F51 – Pan-STARRS 1, Haleakala MPS 471745
2013 07 03.34404 16 46 25.464 +01 38 34.28 21.8 w F51 – Pan-STARRS 1, Haleakala MPS 471745
2013 07 03.35619 16 46 24.986 +01 38 32.06 21.7 w F51 – Pan-STARRS 1, Haleakala MPS 471745
2014 05 30.44009 22 26 39.75 +00 28 07.7 21.4 V G96 – Mt. Lemmon Survey MPS 517709
2014 05 30.44628 22 26 40.08 +00 28 09.5 21.1 V G96 – Mt. Lemmon Survey MPS 517709
2014 05 30.45243 22 26 40.43 +00 28 11.6 21.6 V G96 – Mt. Lemmon Survey MPS 517709
2014 05 30.45853 22 26 40.75 +00 28 12.8 21.4 V G96 – Mt. Lemmon Survey MPS 517709
2014 06 30.52720 22 49 48.641 +02 00 13.84 21.2 w F51 – Pan-STARRS 1, Haleakala MPS 522090
2014 06 30.54094 22 49 49.028 +02 00 14.43 21.2 w F51 – Pan-STARRS 1, Haleakala MPS 522090
2014 06 30.56834 22 49 49.792 +02 00 15.66 21.0 w F51 – Pan-STARRS 1, Haleakala MPS 522090
2014 07 10.53957 22 53 47.946 +01 56 57.53 20.3 i F51 – Pan-STARRS 1, Haleakala MPS 523356
2014 07 10.55311 22 53 48.157 +01 56 56.53 20.3 i F51 – Pan-STARRS 1, Haleakala MPS 523356
2014 07 10.56671 22 53 48.364 +01 56 55.38 20.3 i F51 – Pan-STARRS 1, Haleakala MPS 523356
2014 08 22.43251 22 45 50.985 -03 07 55.13 19.5 w F51 – Pan-STARRS 1, Haleakala MPS 529470
2014 08 22.45597 22 45 50.048 -03 08 13.30 19.4 w F51 – Pan-STARRS 1, Haleakala MPS 529470
2014 08 22.46765 22 45 49.579 -03 08 22.35 19.4 w F51 – Pan-STARRS 1, Haleakala MPS 529470
2014 08 23.44203 22 45 12.708 -03 21 02.85 19.1 w F51 – Pan-STARRS 1, Haleakala MPS 529470
2014 08 23.45423 22 45 12.208 -03 21 12.43 19.1 w F51 – Pan-STARRS 1, Haleakala MPS 529470
2014 08 23.46646 22 45 11.711 -03 21 22.04 19.1 w F51 – Pan-STARRS 1, Haleakala MPS 529470
2014 08 23.47870 22 45 11.208 -03 21 31.65 19.1 w F51 – Pan-STARRS 1, Haleakala MPS 529470
2014 08 29.13365 22 41 24.23 -04 38 43.2 19.8 R H15 – ISON-NM Observatory, Mayhill MPS 529470
2014 08 29.14322 22 41 23.88 -04 38 52.4 19.0 R H15 – ISON-NM Observatory, Mayhill MPS 529470
2014 08 29.15456 22 41 23.40 -04 39 02.2 18.5 R H15 – ISON-NM Observatory, Mayhill MPS 529470
2014 08 29.16418 22 41 22.96 -04 39 09.6 18.6 R H15 – ISON-NM Observatory, Mayhill MPS 529470
2014 08 30.39104 22 40 30.92 -04 56 36.0 18.6 V G96 – Mt. Lemmon Survey MPS 531237
2014 08 30.39646 22 40 30.68 -04 56 40.6 18.6 V G96 – Mt. Lemmon Survey MPS 531237
2014 08 30.40189 22 40 30.42 -04 56 45.2 18.4 V G96 – Mt. Lemmon Survey MPS 531237
2014 08 30.40732 22 40 30.19 -04 56 49.9 18.5 V G96 – Mt. Lemmon Survey MPS 531237
2014 09 12.38119 22 31 18.604 -08 08 21.92 18.7 i F51 – Pan-STARRS 1, Haleakala MPS 532883
2014 09 12.39411 22 31 18.037 -08 08 33.35 18.8 i F51 – Pan-STARRS 1, Haleakala MPS 532883
2014 09 12.40698 22 31 17.476 -08 08 44.82 18.9 i F51 – Pan-STARRS 1, Haleakala MPS 532883
2014 09 12.41988 22 31 16.914 -08 08 56.36 18.8 i F51 – Pan-STARRS 1, Haleakala MPS 532883
2014 09 25.13474 22 23 44.36 -11 09 49.1 19.2 V 703 – Catalina Sky Survey MPS 536148
